This demonstration page uses our WeatherBlox Daily Observations layout. Learn more.

Hourly Observations for March 2, 2020

Temp ( °F °C ) Dew Point ( °F °C ) Humidity (%) Winds ( mph kmh ) Pressure ( in mb ) Visibility ( mi km ) Precip ( " mm )
12:15 am 00:15 Clear 36 2 19 -7 52 52 SSW 6 9 30.13 1020 10 16.0934 0 0
12:35 am 00:35 Clear 37 3 19 -7 48 48 S 7 11 30.12 1020 10 16.0934 0 0
12:55 am 00:55 Clear 34 1 21 -6 60 60 SSW 3 6 30.12 1020 10 16.0934 0 0
1:15 am 01:15 Clear 36 2 21 -6 56 56 S 3 6 30.11 1020 10 16.0934 0 0
1:35 am 01:35 Clear 32 0 23 -5 69 69 SSW 3 6 30.11 1020 10 16.0934 0 0
1:55 am 01:55 Clear 34 1 23 -5 65 65 Calm 30.1 1019 10 16.0934 0 0
2:15 am 02:15 Clear 32 0 25 -4 75 75 Calm 30.1 1019 10 16.0934 0 0
2:35 am 02:35 Clear 32 0 23 -5 69 69 Calm 30.09 1019 10 16.0934 0 0
2:55 am 02:55 Clear 32 0 23 -5 69 69 Calm 30.09 1019 10 16.0934 0 0
3:15 am 03:15 Clear 32 0 23 -5 69 69 Calm 30.08 1019 10 16.0934 0 0
3:35 am 03:35 Clear 32 0 23 -5 69 69 Calm 30.07 1018 10 16.0934 0 0
3:55 am 03:55 Clear 32 0 23 -5 69 69 Calm 30.07 1018 10 16.0934 0 0
4:15 am 04:15 Clear 30 -1 27 -3 86 86 Calm 30.07 1018 10 16.0934 0 0
4:35 am 04:35 Clear 30 -1 27 -3 86 86 Calm 30.07 1018 10 16.0934 0 0
4:55 am 04:55 Clear 30 -1 25 -4 80 80 Calm 30.07 1018 10 16.0934 0 0
5:15 am 05:15 Clear 32 0 23 -5 69 69 Calm 30.07 1018 10 16.0934 0 0
5:35 am 05:35 Clear 30 -1 23 -5 75 75 Calm 30.08 1019 10 16.0934 0 0
5:55 am 05:55 Clear 30 -1 27 -3 86 86 Calm 30.07 1018 10 16.0934 0 0
6:15 am 06:15 Clear 32 0 27 -3 80 80 Calm 30.07 1018 10 16.0934 0 0
6:35 am 06:35 Clear 32 0 23 -5 69 69 Calm 30.06 1018 10 16.0934 0 0
6:55 am 06:55 Sunny 30 -1 23 -5 75 75 S 5 7 30.06 1018 10 16.0934 0 0
7:15 am 07:15 Sunny 30 -1 25 -4 80 80 Calm 30.06 1018 10 16.0934 0 0
7:35 am 07:35 Sunny 32 0 27 -3 80 80 Calm 30.06 1018 10 16.0934 0 0
7:55 am 07:55 Sunny 32 0 27 -3 80 80 Calm 30.06 1018 10 16.0934 0 0
8:15 am 08:15 Sunny 36 2 27 -3 70 70 SSW 6 9 30.06 1018 10 16.0934 0 0
8:35 am 08:35 Sunny 39 4 27 -3 61 61 SSW 5 7 30.06 1018 10 16.0934 0 0
8:55 am 08:55 Sunny 43 6 27 -3 53 53 SSW 5 7 30.04 1017 10 16.0934 0 0
9:15 am 09:15 Sunny 45 7 28 -2 53 53 SW 6 9 30.03 1017 10 16.0934 0 0
9:35 am 09:35 Sunny 46 8 28 -2 50 50 WSW 3 6 30.03 1017 10 16.0934 0 0
9:55 am 09:55 Sunny 48 9 28 -2 46 46 S 3 6 30.02 1017 10 16.0934 0 0
10:15 am 10:15 Sunny 52 11 30 -1 44 44 S 5 7 30 1016 10 16.0934 0 0
10:35 am 10:35 Sunny 54 12 30 -1 41 41 SSW 8 13 30 1016 10 16.0934 0 0
10:55 am 10:55 Sunny 54 12 30 -1 41 41 S 12 19 29.99 1016 10 16.0934 0 0
11:15 am 11:15 Sunny 55 13 30 -1 38 38 S 9 15 29.98 1015 10 16.0934 0 0
11:35 am 11:35 Sunny 57 14 32 0 39 39 S 8 13 29.97 1015 10 16.0934 0 0
11:55 am 11:55 Sunny 59 15 32 0 36 36 S 14 22 29.96 1015 10 16.0934 0 0
12:15 pm 12:15 Sunny 59 15 32 0 36 36 S 13 20 29.95 1014 10 16.0934 0 0
12:35 pm 12:35 Sunny 61 16 32 0 34 34 SSW 13 20 29.93 1013 10 16.0934 0 0
12:55 pm 12:55 Sunny 63 17 34 1 34 34 S 14 22 29.91 1013 10 16.0934 0 0
1:15 pm 13:15 Sunny 63 17 34 1 34 34 S 14 22 29.89 1012 10 16.0934 0 0
1:35 pm 13:35 Sunny 63 17 34 1 34 34 S 12 19 29.88 1012 10 16.0934 0 0
1:55 pm 13:55 Sunny 64 18 34 1 32 32 SSW 14 22 29.85 1011 10 16.0934 0 0
2:15 pm 14:15 Partly Cloudy 64 18 34 1 32 32 SSW 13 20 29.83 1010 10 16.0934 0 0
2:35 pm 14:35 Mostly Cloudy 64 18 34 1 32 32 SSW 14 22 29.83 1010 10 16.0934 0 0
2:55 pm 14:55 Mostly Cloudy 63 17 34 1 34 34 SSW 15 24 29.83 1010 10 16.0934 0 0
3:15 pm 15:15 Cloudy 63 17 34 1 34 34 S 16 26 29.83 1010 10 16.0934 0 0
3:35 pm 15:35 Mostly Cloudy 64 18 36 2 34 34 SSW 21 33 29.81 1010 10 16.0934 0 0
3:55 pm 15:55 Mostly Cloudy 63 17 36 2 37 37 SSW 20 31 29.82 1010 10 16.0934 0 0
4:15 pm 16:15 Partly Cloudy 63 17 36 2 37 37 SW 16 26 29.81 1009 10 16.0934 0 0
4:35 pm 16:35 Mostly Cloudy 63 17 36 2 37 37 SSW 14 22 29.81 1009 10 16.0934 0 0
4:55 pm 16:55 Cloudy 63 17 37 3 39 39 WSW 21 33 29.82 1010 10 16.0934 0 0
5:15 pm 17:15 Cloudy 59 15 39 4 48 48 WSW 16 26 29.83 1010 10 16.0934 0 0
5:35 pm 17:35 Cloudy 59 15 41 5 51 51 SW 14 22 29.83 1010 10 16.0934 0 0
5:55 pm 17:55 Cloudy 59 15 39 4 48 48 SSW 12 19 29.82 1010 10 16.0934 0 0
6:15 pm 18:15 Cloudy 59 15 37 3 45 45 SW 13 20 29.82 1010 10 16.0934 0 0
6:35 pm 18:35 Cloudy 59 15 37 3 45 45 SW 10 17 29.82 1010 10 16.0934 0 0
6:55 pm 18:55 Cloudy 59 15 37 3 45 45 SW 13 20 29.82 1010 10 16.0934 0 0
7:15 pm 19:15 Cloudy 59 15 37 3 45 45 SW 12 19 29.82 1010 10 16.0934 0 0
7:35 pm 19:35 Cloudy 55 13 43 6 63 63 SW 12 19 29.82 1010 10 16.0934 0 0
7:55 pm 19:55 Cloudy 55 13 43 6 63 63 SW 9 15 29.82 1010 10 16.0934 0 0
8:15 pm 20:15 Cloudy 55 13 43 6 63 63 WSW 7 11 29.83 1010 10 16.0934 0 0
8:35 pm 20:35 Cloudy 52 11 46 8 82 82 W 5 7 29.83 1010 10 16.0934 0.02 0.508
8:55 pm 20:55 Cloudy 52 11 46 8 82 82 Calm 29.83 1010 10 16.0934 0.02 0.508
9:15 pm 21:15 Cloudy 50 10 46 8 88 88 W 5 7 29.85 1011 10 16.0934 0.01 0.254
9:35 pm 21:35 Cloudy 50 10 46 8 88 88 WSW 6 9 29.85 1011 5 8.0467 0.07 1.778
9:55 pm 21:55 Cloudy 50 10 46 8 88 88 WSW 3 6 29.85 1011 7 11.26538 0.13 3.302
10:15 pm 22:15 Cloudy 50 10 46 8 88 88 SSW 6 9 29.85 1011 10 16.0934 0.03 0.762
10:35 pm 22:35 Cloudy 48 9 46 8 94 94 SSW 7 11 29.85 1011 10 16.0934 0.04 1.016
10:55 pm 22:55 Cloudy 48 9 46 8 94 94 SSW 3 6 29.85 1011 10 16.0934 0.04 1.016
11:15 pm 23:15 Cloudy 46 8 46 8 100 100 Calm 29.85 1011 10 16.0934 0.01 0.254
11:35 pm 23:35 Cloudy 46 8 46 8 100 100 WSW 5 7 29.85 1011 10 16.0934 0.01 0.254
11:55 pm 23:55 Cloudy 46 8 46 8 100 100 Calm 29.84 1010 10 16.0934 0.01 0.254

Powered by AerisWeather